Weather Underground History

Daily Summary for June 21, 2018 Units:  Metric    English   Both
« Previous Day
Next Day »
Daily Weekly Monthly Yearly Custom
  Current: High: Low: Average:
Temperature: 8.7 °C 10.9 °C 8.7 °C 9.6 °C
Dew Point: 5.7 °C 6.9 °C 5.4 °C 6.3 °C
Humidity: 81% 83% 75% 81%
Wind Speed: 6.4km/h 12.9km/h 0.0km/h 4.5km/h
Wind Gust: 11.3km/h 24.1km/h - -
WindWNW - - WNW
Pressure: 1020.9 hPa 1021.1 hPa 1019.6 hPa -
Precipitation: 0.0 mm      
Historical Graphs
 
 
Tabular Data for June 21, 2018
Time Temperature Dew Point Pressure Wind Wind Speed Wind Gust Humidity Rainfall Rate (Hourly) solar
00:04 10.9 °C 6.6 °C 1019.7 hPa NW 3.2 km/h 6.4 km/h 75% 0.0 mm 0.00 W/m2
00:09 10.8 °C 6.8 °C 1019.7 hPa NW 3.2 km/h 6.4 km/h 76% 0.0 mm 0.00 W/m2
00:14 10.8 °C 6.7 °C 1019.7 hPa Calm     76% 0.0 mm 0.00 W/m2
00:19 10.7 °C 6.8 °C 1019.7 hPa Calm     77% 0.0 mm 0.00 W/m2
00:24 10.6 °C 6.7 °C 1019.7 hPa Calm     77% 0.0 mm 0.00 W/m2
00:29 10.4 °C 6.8 °C 1019.7 hPa Calm     78% 0.0 mm 0.00 W/m2
00:34 10.3 °C 6.6 °C 1019.6 hPa Calm   4.8 km/h 78% 0.0 mm 0.00 W/m2
00:39 10.2 °C 6.7 °C 1019.8 hPa Calm     79% 0.0 mm 0.00 W/m2
00:44 10.1 °C 6.6 °C 1019.8 hPa Calm   3.2 km/h 79% 0.0 mm 0.00 W/m2
00:49 10.0 °C 6.6 °C 1019.8 hPa NW 4.8 km/h 4.8 km/h 79% 0.0 mm 0.00 W/m2
00:54 9.9 °C 6.6 °C 1019.9 hPa Calm   1.6 km/h 80% 0.0 mm 0.00 W/m2
00:59 9.8 °C 6.6 °C 1019.9 hPa Calm     80% 0.0 mm 0.00 W/m2
01:04 9.8 °C 6.5 °C 1019.9 hPa NW 1.6 km/h 4.8 km/h 80% 0.0 mm 0.00 W/m2
01:09 9.7 °C 6.4 °C 1019.9 hPa Calm   6.4 km/h 80% 0.0 mm 0.00 W/m2
01:14 9.7 °C 6.4 °C 1019.9 hPa WNW 1.6 km/h 6.4 km/h 80% 0.0 mm 0.00 W/m2
01:19 9.6 °C 6.5 °C 1019.9 hPa Calm   3.2 km/h 81% 0.0 mm 0.00 W/m2
01:24 9.6 °C 6.4 °C 1019.9 hPa WNW 1.6 km/h 8.0 km/h 81% 0.0 mm 0.00 W/m2
01:29 9.6 °C 6.4 °C 1019.9 hPa WNW 4.8 km/h 4.8 km/h 81% 0.0 mm 0.00 W/m2
01:34 9.4 °C 6.3 °C 1019.9 hPa WNW 1.6 km/h 1.6 km/h 81% 0.0 mm 0.00 W/m2
01:39 9.3 °C 6.2 °C 1019.8 hPa WNW 3.2 km/h 9.7 km/h 81% 0.0 mm 0.00 W/m2
01:44 9.3 °C 6.2 °C 1019.8 hPa WNW 1.6 km/h 11.3 km/h 81% 0.0 mm 0.00 W/m2
01:49 9.4 °C 6.3 °C 1019.8 hPa WNW 3.2 km/h 8.0 km/h 81% 0.0 mm 0.00 W/m2
01:54 9.3 °C 6.2 °C 1019.7 hPa WNW 4.8 km/h 9.7 km/h 81% 0.0 mm 0.00 W/m2
01:59 9.3 °C 6.4 °C 1019.8 hPa WNW 1.6 km/h 9.7 km/h 82% 0.0 mm 0.00 W/m2
02:04 9.3 °C 6.4 °C 1019.8 hPa WNW 4.8 km/h 9.7 km/h 82% 0.0 mm 0.00 W/m2
02:09 9.4 °C 6.4 °C 1019.9 hPa Calm   6.4 km/h 82% 0.0 mm 0.00 W/m2
02:14 9.3 °C 6.4 °C 1019.8 hPa West 3.2 km/h 11.3 km/h 82% 0.0 mm 0.00 W/m2
02:19 9.3 °C 6.4 °C 1019.8 hPa West 6.4 km/h 6.4 km/h 82% 0.0 mm 0.00 W/m2
02:24 9.2 °C 6.3 °C 1019.9 hPa WNW 6.4 km/h 8.0 km/h 82% 0.0 mm 0.00 W/m2
02:29 9.2 °C 6.4 °C 1019.9 hPa WNW 3.2 km/h 8.0 km/h 83% 0.0 mm 0.00 W/m2
02:34 9.2 °C 6.4 °C 1019.9 hPa NW 6.4 km/h 12.9 km/h 83% 0.0 mm 0.00 W/m2
02:39 9.2 °C 6.4 °C 1019.8 hPa WNW 6.4 km/h 9.7 km/h 83% 0.0 mm 0.00 W/m2
02:44 9.2 °C 6.5 °C 1019.8 hPa WNW 6.4 km/h 12.9 km/h 83% 0.0 mm 0.00 W/m2
02:49 9.2 °C 6.4 °C 1019.8 hPa WNW 3.2 km/h 17.7 km/h 83% 0.0 mm 0.00 W/m2
02:54 9.3 °C 6.6 °C 1019.7 hPa West 3.2 km/h 14.5 km/h 83% 0.0 mm 0.00 W/m2
02:59 9.3 °C 6.6 °C 1019.9 hPa West 1.6 km/h 14.5 km/h 83% 0.0 mm 0.00 W/m2
03:04 9.3 °C 6.6 °C 1019.8 hPa WNW 4.8 km/h 14.5 km/h 83% 0.0 mm 0.00 W/m2
03:09 9.4 °C 6.7 °C 1019.8 hPa NW 8.0 km/h 12.9 km/h 83% 0.0 mm 0.00 W/m2
03:14 9.4 °C 6.7 °C 1019.8 hPa West 11.3 km/h 22.5 km/h 83% 0.0 mm 0.00 W/m2
03:19 9.6 °C 6.8 °C 1019.7 hPa NW 11.3 km/h 16.1 km/h 83% 0.0 mm 0.00 W/m2
03:24 9.7 °C 6.7 °C 1019.8 hPa WNW 4.8 km/h 17.7 km/h 82% 0.0 mm 0.00 W/m2
03:29 9.7 °C 6.8 °C 1019.7 hPa NW 9.7 km/h 20.9 km/h 82% 0.0 mm 0.00 W/m2
03:34 9.8 °C 6.8 °C 1019.8 hPa WNW 8.0 km/h 16.1 km/h 82% 0.0 mm 0.00 W/m2
03:39 9.8 °C 6.9 °C 1019.8 hPa WNW 6.4 km/h 16.1 km/h 82% 0.0 mm 0.00 W/m2
03:44 9.8 °C 6.9 °C 1020.0 hPa WNW 6.4 km/h 12.9 km/h 82% 0.0 mm 0.00 W/m2
03:49 9.9 °C 6.9 °C 1020.1 hPa WNW 1.6 km/h 9.7 km/h 82% 0.0 mm 0.00 W/m2
03:54 9.9 °C 6.8 °C 1020.0 hPa WNW 1.6 km/h 11.3 km/h 81% 0.0 mm 0.00 W/m2
03:59 9.9 °C 6.4 °C 1019.9 hPa NW 4.8 km/h 14.5 km/h 79% 0.0 mm 0.00 W/m2
04:04 9.8 °C 6.4 °C 1020.0 hPa WNW 1.6 km/h 9.7 km/h 79% 0.0 mm 0.00 W/m2
04:09 9.8 °C 6.3 °C 1020.1 hPa NW 4.8 km/h 8.0 km/h 79% 0.0 mm 0.00 W/m2
04:14 9.7 °C 6.2 °C 1020.2 hPa West 11.3 km/h 20.9 km/h 79% 0.0 mm 0.00 W/m2
04:19 9.6 °C 6.2 °C 1020.2 hPa West 8.0 km/h 24.1 km/h 79% 0.0 mm 0.00 W/m2
04:24 9.5 °C 6.1 °C 1020.3 hPa WNW 11.3 km/h 14.5 km/h 79% 0.0 mm 0.00 W/m2
04:29 9.4 °C 5.9 °C 1020.1 hPa NW 4.8 km/h 16.1 km/h 79% 0.0 mm 0.00 W/m2
04:34 9.3 °C 5.8 °C 1020.4 hPa NW 8.0 km/h 9.7 km/h 79% 0.0 mm 0.00 W/m2
04:39 9.2 °C 5.7 °C 1020.5 hPa WNW 12.9 km/h 12.9 km/h 79% 0.0 mm 5.00 W/m2
04:44 9.2 °C 5.8 °C 1020.5 hPa WNW 9.7 km/h 17.7 km/h 79% 0.0 mm 5.00 W/m2
04:49 9.2 °C 5.8 °C 1020.6 hPa WNW 6.4 km/h 16.1 km/h 79% 0.0 mm 11.00 W/m2
04:54 9.2 °C 5.9 °C 1020.6 hPa NW 9.7 km/h 14.5 km/h 80% 0.0 mm 9.00 W/m2
04:59 9.2 °C 5.9 °C 1020.8 hPa WNW 8.0 km/h 11.3 km/h 80% 0.0 mm 11.00 W/m2
05:04 9.1 °C 5.8 °C 1020.9 hPa West 1.6 km/h 12.9 km/h 80% 0.0 mm 11.00 W/m2
05:09 8.9 °C 5.7 °C 1020.8 hPa WNW 9.7 km/h 9.7 km/h 80% 0.0 mm 12.00 W/m2
05:14 8.9 °C 5.6 °C 1020.9 hPa NW 8.0 km/h 11.3 km/h 80% 0.0 mm 14.00 W/m2
05:19 8.8 °C 5.6 °C 1020.9 hPa NW 4.8 km/h 9.7 km/h 80% 0.0 mm 16.00 W/m2
05:24 8.8 °C 5.5 °C 1021.0 hPa WNW 4.8 km/h 9.7 km/h 80% 0.0 mm 18.00 W/m2
05:29 8.7 °C 5.4 °C 1021.1 hPa WNW 4.8 km/h 8.0 km/h 80% 0.0 mm 19.00 W/m2
05:34 8.7 °C 5.7 °C 1021.0 hPa WNW 4.8 km/h 8.0 km/h 81% 0.0 mm 21.00 W/m2
05:39 8.7 °C 5.7 °C 1020.9 hPa WNW 6.4 km/h 11.3 km/h 81% 0.0 mm 23.00 W/m2
Compliments of Weather Underground - 2.75 mb